Theta_e
304 302 300 301 305 302 301 303 304 305 307 309 311 312 314 317 321 325 327 325 327 326 326 326 326 326 326 325 326 327 323 328 330 330 329 325 326 325 323 329 328 330 330 331 338
300 303 303 300 304 305 303 302 303 307 309 310 312 312 312 315 321 324 325 326 327 326 326 326 326 326 325 325 326 322 322 325 326 325 326 326 326 326 324 327 330 330 332 334 338
304 301 303 302 301 305 304 301 302 305 308 309 310 313 314 315 321 323 323 326 326 327 325 325 325 325 325 325 326 323 323 323 324 324 326 326 327 325 325 325 328 330 333 336 338
304 304 302 303 302 303 304 302 300 302 305 308 309 312 315 318 320 321 322 324 326 325 325 324 324 325 326 326 326 326 324 323 324 325 324 325 328 325 324 325 324 327 329 335 337
305 304 304 300 301 302 302 303 301 300 302 305 307 310 314 317 318 320 323 325 325 325 326 325 324 325 325 326 327 326 323 324 323 323 324 325 326 325 326 327 327 330 334 335 336
303 305 304 303 300 301 302 303 303 300 301 303 306 308 312 317 316 320 322 324 324 324 326 325 325 324 326 327 326 324 324 324 324 324 324 325 325 326 326 327 329 331 334 335 335
304 303 304 304 300 300 301 302 302 301 300 302 304 307 312 314 318 318 320 324 323 325 325 325 324 324 325 326 326 325 324 321 322 323 324 325 327 326 327 329 332 334 334 335 334
304 304 303 303 302 299 300 302 301 299 300 302 303 307 310 312 314 318 321 324 325 325 324 324 323 324 325 324 325 326 324 325 322 323 324 324 327 325 327 331 334 335 335 335 335
303 304 303 302 302 299 300 301 301 299 300 303 304 307 309 311 313 315 320 323 324 323 322 322 323 323 323 325 326 326 329 325 325 318 321 325 327 324 328 331 333 334 335 335 334
303 304 304 303 301 300 300 301 298 298 301 306 306 306 307 311 313 314 317 323 322 320 321 321 322 323 323 326 329 327 328 327 325 321 320 323 325 321 326 330 331 332 333 333 333
303 303 304 304 302 300 301 298 300 301 303 304 304 306 310 309 312 315 317 322 322 320 323 321 323 324 324 325 322 325 327 328 323 320 319 323 323 321 322 326 328 331 332 332 332
304 302 304 305 303 300 300 298 303 303 304 303 304 306 306 309 311 312 315 321 321 322 321 323 323 320 322 322 323 326 326 327 323 320 321 320 322 319 319 321 326 328 330 332 332
304 303 304 305 301 301 300 298 301 299 302 301 305 304 305 307 308 311 314 317 320 322 322 323 321 319 322 323 323 325 327 326 326 321 319 321 322 319 318 319 320 324 326 327 328
303 303 304 304 301 301 299 297 298 300 292 296 305 306 305 307 308 308 311 316 316 322 321 321 319 320 322 324 323 326 323 323 324 324 329 323 332 325 319 318 317 316 318 318 318
303 304 305 303 300 299 299 300 301 303 289 297 306 307 307 306 311 312 310 315 319 319 320 321 320 321 324 321 321 323 322 323 323 323 323 324 328 326 318 319 318 318 314 314 315
303 304 302 301 300 300 301 300 303 292 292 300 308 308 308 308 310 312 313 314 315 316 319 317 318 319 321 319 320 320 320 321 321 320 325 322 324 325 321 318 317 312 312 313 314
304 302 301 301 300 300 298 303 294 290 294 299 307 308 307 308 309 311 313 317 318 316 319 315 319 315 319 321 319 319 320 320 322 322 325 319 321 322 320 319 314 311 311 311 312
302 302 302 301 300 298 301 296 297 287 288 303 304 306 308 308 306 309 312 314 316 316 316 318 318 318 316 321 322 320 319 321 324 322 316 315 322 321 316 316 315 315 313 311 310
301 302 301 301 300 301 301 290 291 289 300 302 303 305 307 309 309 307 309 313 316 315 318 318 319 315 314 317 319 320 318 314 313 309 314 314 311 308 308 307 313 314 312 316 318
301 301 301 300 301 302 299 296 294 300 301 302 303 305 306 309 309 309 312 312 315 314 313 315 317 315 314 317 315 318 314 316 314 318 318 311 310 311 310 309 309 310 311 311 309
301 300 300 301 301 301 292 288 293 300 300 303 305 306 308 309 309 310 313 312 313 314 311 313 316 315 315 318 317 316 316 312 313 312 313 313 311 307 309 309 310 310 309 309 310
301 292 300 301 297 289 286 289 298 300 301 303 302 304 306 307 309 309 312 313 313 312 313 311 313 317 315 310 311 313 316 312 315 313 311 313 310 306 306 306 308 309 309 310 310
300 299 299 299 289 284 288 294 298 301 302 304 306 304 301 306 310 310 310 310 311 312 312 311 313 316 316 314 313 314 312 311 310 309 312 313 310 305 305 305 307 309 310 310 310
299 290 297 299 298 291 294 300 301 300 299 301 303 302 304 306 305 309 310 311 310 310 311 311 310 311 315 314 313 313 312 311 311 309 311 309 309 308 307 306 307 308 309 310 310
298 291 293 288 292 296 298 300 300 299 299 300 302 302 305 307 307 307 311 310 308 308 307 308 310 307 306 307 312 311 312 311 312 310 311 310 309 307 307 307 308 310 311 311 311
299 295 294 294 295 296 296 298 299 298 299 300 301 301 301 302 303 306 309 310 310 307 307 305 305 304 304 303 308 309 310 311 310 310 310 308 310 306 309 310 310 310 310 310 310
299 298 297 294 291 290 294 296 298 297 298 299 299 300 301 300 298 301 303 304 305 307 306 305 302 297 301 299 308 307 308 310 310 310 310 311 310 308 308 308 308 308 309 309 309
Wind_Speed
12 11 11 10 10 10 11 12 17 17 12 12 13 12 14 13 13 16 21 22 18 16 25 23 30 25 18 11 5 2 2 2 3 3 3 3 4 7 5 14 4 9 6 6 25
13 12 11 9 9 10 8 10 14 14 11 9 11 12 12 14 13 20 24 19 15 16 22 19 24 25 15 9 5 2 3 6 4 3 4 3 4 12 6 9 3 8 8 17 28
14 13 12 10 10 10 8 6 10 15 13 9 8 9 11 11 11 20 20 19 13 18 13 19 18 19 14 11 6 2 4 3 9 11 5 4 4 7 13 3 10 17 20 30 31
15 14 12 10 10 9 8 6 7 11 17 13 8 9 8 10 7 6 14 15 22 18 14 13 12 13 8 6 9 3 6 6 8 13 7 3 8 5 16 5 12 17 20 33 33
17 15 13 11 9 8 8 8 7 7 11 16 11 8 8 12 16 10 3 15 16 19 18 18 16 9 5 8 6 4 2 9 8 12 13 9 9 6 11 2 10 20 30 32 31
18 16 14 11 9 7 7 8 7 7 7 12 12 10 8 7 13 16 8 12 17 16 18 25 19 11 4 7 9 5 3 13 10 10 8 4 4 6 8 8 19 24 32 29 30
20 18 15 13 9 8 7 7 7 8 5 7 9 9 10 14 7 15 14 11 14 17 18 20 15 12 10 3 5 4 3 6 4 4 4 3 2 5 7 19 26 29 29 27 27
22 19 17 14 11 9 7 6 6 8 6 5 7 9 7 13 20 10 14 17 18 17 15 16 19 18 7 9 2 4 3 1 2 6 3 5 8 2 13 26 27 29 27 26 27
22 21 17 16 12 9 6 5 6 7 5 4 6 6 6 9 17 19 14 20 20 17 16 17 18 8 8 7 3 4 4 5 2 3 2 4 5 4 17 25 27 28 27 26 26
23 21 20 15 12 8 5 4 5 6 4 2 6 3 13 6 11 18 17 17 16 19 18 11 7 4 4 7 15 6 3 5 8 1 2 5 5 2 19 24 27 26 25 26 27
24 21 19 16 13 9 7 4 2 3 9 6 2 3 1 15 9 14 18 17 13 17 5 8 4 9 13 12 1 7 7 7 2 1 1 4 3 3 7 16 17 23 25 26 24
24 21 18 17 13 11 8 4 3 1 5 13 17 11 16 5 5 15 15 14 12 10 7 4 9 6 9 7 3 10 11 9 3 3 3 1 3 1 3 8 22 25 24 25 23
21 20 18 16 14 11 8 6 3 2 1 6 12 18 17 11 9 11 12 16 4 12 14 5 6 10 9 9 9 5 16 10 6 3 2 3 2 1 2 3 7 17 21 21 23
21 20 17 17 12 10 7 7 4 1 4 5 4 7 14 11 7 27 19 13 9 11 17 4 4 11 10 9 9 8 4 8 7 6 10 2 7 4 2 4 6 16 22 24 22
23 21 21 17 9 12 6 7 4 2 3 3 3 3 9 14 2 4 23 17 8 9 3 6 10 14 13 7 7 3 13 8 4 4 3 2 4 4 3 6 5 8 17 21 19
21 20 21 13 12 10 8 7 8 6 6 5 0 4 6 10 5 2 13 19 18 4 2 2 13 7 3 10 4 10 9 9 5 3 2 4 3 3 8 6 3 3 15 18 18
24 24 17 13 13 12 9 11 4 4 4 4 1 3 6 6 6 2 9 11 3 6 5 3 13 5 8 12 12 12 10 3 2 3 1 6 3 4 5 3 3 11 16 16 20
25 19 16 10 9 8 14 4 2 4 6 1 3 3 4 9 7 2 10 13 8 1 4 5 4 10 5 9 9 17 4 4 4 4 3 4 4 4 6 7 4 12 18 18 25
21 16 10 8 7 12 6 3 7 6 3 3 3 2 4 6 5 10 11 19 13 8 5 4 2 1 1 4 12 5 3 1 5 2 3 4 4 2 5 5 13 22 24 22 13
14 10 7 7 7 12 2 5 4 5 2 1 4 6 5 6 9 4 15 18 9 3 6 3 5 2 1 9 4 3 4 4 2 3 1 2 3 3 4 10 11 16 23 26 27
7 3 4 5 7 3 3 6 5 6 3 5 3 3 7 6 12 9 10 2 9 13 2 7 2 2 2 1 7 5 2 1 4 2 4 4 4 1 4 7 13 16 25 31 29
2 2 6 8 2 2 2 5 3 5 5 9 4 7 5 4 5 6 7 4 19 13 6 1 4 4 3 1 0 0 6 4 3 3 2 1 1 2 4 5 10 16 27 28 27
2 4 6 7 2 2 5 4 4 3 4 3 4 2 3 3 4 6 8 2 20 9 9 4 2 4 4 4 3 3 3 4 5 3 1 3 3 3 5 5 14 21 27 29 27
3 1 2 3 1 4 2 3 3 6 5 5 5 5 4 4 1 6 4 2 6 8 13 7 4 1 6 4 6 5 5 4 5 4 4 3 3 0 4 7 14 16 26 29 25
2 1 2 2 2 2 2 2 2 2 5 5 3 7 4 1 2 3 4 6 6 5 5 4 3 3 4 5 3 5 10 7 5 5 5 5 7 6 5 6 15 18 20 22 22
1 4 3 1 2 2 2 2 4 3 3 4 4 9 11 5 4 1 1 3 3 4 4 2 3 2 6 9 6 4 5 7 5 4 5 5 3 5 11 10 9 10 12 16 18
0 4 1 2 3 3 2 3 2 2 1 3 6 5 11 8 9 16 15 15 9 5 3 4 6 3 2 5 5 4 6 5 4 3 7 5 4 7 3 3 2 5 7 8 13
Wind_Direction
274 278 269 251 258 252 245 236 230 241 253 248 251 236 238 248 239 240 240 246 243 228 225 241 230 244 267 309 307 252 65 231 245 186 311 160 134 162 148 148 167 187 180 209 169
265 260 274 260 248 258 254 238 227 229 230 238 246 248 232 240 240 242 242 244 228 223 229 240 233 240 262 268 297 163 151 215 239 345 318 273 217 163 144 151 163 174 172 164 165
258 264 254 262 243 246 253 245 236 227 232 234 243 248 236 240 242 248 243 237 226 225 227 219 231 238 235 226 231 200 204 242 297 305 308 281 196 186 142 225 200 178 166 167 167
250 250 258 248 253 243 241 250 252 239 231 236 236 245 232 208 216 218 236 230 218 227 230 194 173 170 198 184 197 236 251 270 287 296 324 273 189 205 169 214 220 193 179 170 173
249 241 246 249 249 249 234 237 257 266 234 234 243 253 242 219 233 258 267 202 208 220 222 209 179 165 194 182 179 193 278 294 276 296 291 276 242 198 185 230 170 168 170 174 178
247 243 237 247 243 251 236 231 249 271 249 234 239 253 242 238 228 248 256 214 213 205 212 217 224 177 231 202 186 145 242 276 280 280 277 252 239 184 197 183 164 167 173 179 184
240 236 233 236 239 240 236 232 244 266 272 240 237 246 251 230 231 236 243 219 209 207 214 209 193 182 200 152 183 148 333 317 234 236 255 222 268 228 177 174 167 173 178 184 188
237 232 228 229 234 231 228 222 243 270 277 264 232 244 254 247 238 240 219 211 194 200 209 203 188 193 191 132 92 155 143 228 317 185 228 159 242 215 175 172 174 178 183 188 191
234 227 224 223 230 231 227 220 234 259 272 263 230 205 256 239 248 237 226 207 194 190 180 164 170 170 149 135 121 225 183 166 299 39 217 157 241 166 180 183 179 182 187 194 194
223 224 217 219 220 226 226 225 243 252 240 215 190 208 249 245 250 233 230 221 186 164 151 157 163 174 160 177 210 177 179 188 197 275 286 135 278 310 186 191 188 187 190 196 197
212 216 211 212 209 207 207 206 234 240 221 207 216 218 295 220 249 236 230 205 180 163 174 192 179 194 188 194 219 191 198 213 146 51 191 199 198 259 201 200 192 195 192 196 199
203 208 200 201 194 193 191 197 192 207 295 249 245 251 252 261 272 245 224 210 174 191 125 172 217 191 163 158 136 164 190 201 124 333 153 234 191 207 196 218 206 201 196 197 201
192 193 190 187 185 184 188 200 187 291 268 275 230 233 232 237 240 254 226 233 262 198 182 181 169 154 151 167 160 187 189 177 193 161 63 118 298 150 218 176 192 210 203 196 195
177 179 177 178 171 177 185 199 218 231 60 270 221 240 212 207 266 244 243 233 198 207 167 213 166 158 154 177 167 190 158 133 136 179 210 143 238 252 160 230 154 138 148 157 164
170 173 178 167 165 162 170 177 174 119 29 260 207 194 201 184 72 247 227 211 227 218 150 166 169 163 162 165 152 157 133 105 79 89 130 155 196 188 131 230 181 157 139 146 150
157 156 152 155 157 155 155 157 128 47 256 328 317 205 171 225 233 280 189 207 210 247 158 233 174 153 151 141 123 118 104 64 51 75 221 177 181 230 187 170 108 159 149 149 148
144 145 154 154 155 159 160 136 48 130 323 301 336 313 237 181 217 291 217 198 194 152 172 313 163 120 139 133 135 121 121 131 152 183 221 151 134 248 272 237 68 176 133 158 141
141 149 149 155 156 161 146 59 121 236 228 213 256 280 255 177 218 178 233 207 195 124 130 173 155 173 171 175 167 159 171 144 154 170 142 167 206 245 207 253 188 157 159 144 134
142 145 139 129 143 156 150 73 208 205 242 260 264 182 244 213 185 180 257 208 188 186 145 152 154 101 237 129 153 156 143 53 106 42 99 186 255 165 129 155 185 189 187 170 179
143 139 104 134 139 167 114 248 236 220 281 231 237 160 242 191 177 176 204 186 173 174 174 158 109 56 222 106 34 155 137 111 7 125 188 280 279 208 159 156 161 158 169 171 158
139 128 150 154 161 177 182 232 265 253 208 228 265 256 243 181 193 163 207 143 147 181 2 178 133 123 220 226 143 137 191 123 115 147 156 140 245 320 177 182 164 163 167 161 156
269 60 160 173 123 29 161 209 290 269 256 248 253 263 237 196 154 165 227 181 160 140 172 67 119 113 83 4 182 266 160 151 119 227 34 115 220 348 286 216 176 166 169 165 157
221 146 175 185 155 279 291 270 248 276 244 259 256 227 219 257 134 176 204 99 170 140 160 197 85 103 56 28 343 151 140 125 108 70 170 120 245 355 64 143 181 176 178 170 165
177 63 178 156 147 156 229 254 265 258 273 270 276 310 258 219 238 166 138 106 111 125 158 111 79 9 179 155 135 155 139 133 106 106 176 193 152 314 50 110 136 163 179 178 179
183 250 193 219 282 235 247 231 270 7 245 300 268 327 296 14 61 87 102 115 74 82 85 94 119 88 23 23 89 137 159 155 145 152 160 192 163 181 149 125 135 143 161 179 192
231 153 162 150 289 291 309 328 14 349 352 336 25 342 27 54 349 117 100 90 134 38 85 55 139 107 26 6 55 79 128 127 115 127 79 115 113 159 150 125 137 158 182 198 205
222 128 189 356 334 86 265 295 342 310 62 48 304 333 28 4 33 45 70 77 80 107 103 89 128 89 300 347 57 4 211 154 142 165 140 158 203 147 170 150 194 184 188 213 215